Location: *
(34.8620°S, 39.3380°E)
Time: 00:22:53
(UTC+00:00)

Cosmos 1656 Rocket - Pass Details

Date: 27 July 2021
Orbit: 796 x 845 km, 71.1° (Epoch: 20 September)

Event Time Altitude Azimuth Distance (km) Brightness Sun altitude
Exits shadow 03:22:32 - 203° (SSW) 3,261 6.4 -12.1°
Reaches altitude 10° 03:24:42 10° 204° (SSW) 2,429 5.7 -11.7°
Maximum altitude 03:30:16 76° 289° (WNW) 857 3.6 -10.6°
Drops below altitude 10° 03:35:50 10° 13° (NNE) 2,433 6.5 -9.5°
Sets 03:38:16 0° 15° (NNE) 3,366 7.3 -9.0°
